Location: Aciu?a
(46.2833°N, 22.4500°E)
Time: 12:44:42
(UTC+00:00)

Cosmos 1455 - Pass Details

Date: 29 May 2022
Orbit: 492 x 514 km, 82.5° (Epoch: 03 July)

Event Time Altitude Azimuth Distance (km) Brightness Sun altitude
Rises 23:32:19 0° 357° (N) 2,585 7.0 -20.4°
Reaches altitude 10° 23:34:32 10° 4° (N) 1,698 5.9 -20.3°
Maximum altitude 23:38:04 42° 77° (ENE) 717 3.1 -20.1°
Enters shadow 23:39:16 31° 123° (ESE) 886 3.2 -20.1°
